• In Uzbekistan
  • List of Countries
  • For 7 days
  • Water Temperature
  • Satellite Maps
  • Weather Map
  • Weather Widgets
  • user-avatar
    Login

    Hourly Weather Mokhotlong

    Today, 19 September, Wednesday

    Time Temperature Precipitation Wind Pressure Humidity
    00:00 +14°C° 0 mm 2 mps 585 mmHg 14%
    01:00 +14°C° 0 mm 2 mps 585 mmHg 14%
    02:00 +13°C° 0 mm 2 mps 584 mmHg 14%
    03:00 +13°C° 0 mm 2 mps 584 mmHg 15%
    04:00 +13°C° 0 mm 2 mps 584 mmHg 15%
    05:00 +12°C° 0 mm 2 mps 584 mmHg 16%
    06:00 +13°C° 0 mm 3 mps 585 mmHg 14%
    07:00 +16°C° 0 mm 3 mps 586 mmHg 13%
    08:00 +18°C° 0 mm 4 mps 587 mmHg 12%
    09:00 +20°C° 0 mm 7 mps 588 mmHg 11%
    10:00 +22°C° 0 mm 9 mps 588 mmHg 10%
    11:00 +24°C° 0 mm 12 mps 589 mmHg 9%
    12:00 +24°C° 0 mm 12 mps 589 mmHg 9%
    13:00 +26°C° 0 mm 13 mps 588 mmHg 9%
    14:00 +26°C° 0 mm 13 mps 588 mmHg 10%
    15:00 +24°C° 0 mm 12 mps 588 mmHg 10%
    16:00 +23°C° 0 mm 10 mps 588 mmHg 11%
    17:00 +22°C° 0 mm 9 mps 588 mmHg 12%
    18:00 +18°C° 0 mm 7 mps 588 mmHg 17%
    19:00 +16°C° 0 mm 5 mps 588 mmHg 22%
    20:00 +15°C° 0 mm 2 mps 588 mmHg 27%
    21:00 +14°C° 0 mm 2 mps 588 mmHg 33%
    22:00 +13°C° 0 mm 2 mps 588 mmHg 39%
    23:00 +10°C° 0 mm 2 mps 588 mmHg 46%

    Tomorrow, 20 September, Thursday

    Time Temperature Precipitation Wind Pressure Humidity
    00:00 +10°C° 0 mm 2 mps 588 mmHg 53%
    01:00 +9°C° 0 mm 2 mps 588 mmHg 61%
    02:00 +9°C° 0 mm 2 mps 588 mmHg 69%
    03:00 +8°C° 0 mm 2 mps 588 mmHg 72%
    04:00 +8°C° 0 mm 2 mps 588 mmHg 75%
    05:00 +7°C° 0 mm 2 mps 588 mmHg 78%
    06:00 +8°C° 0 mm 2 mps 588 mmHg 74%
    07:00 +9°C° 0 mm 2 mps 589 mmHg 70%
    08:00 +10°C° 0 mm 3 mps 590 mmHg 66%
    09:00 +11°C° 0 mm 3 mps 590 mmHg 57%
    10:00 +13°C° 0 mm 4 mps 591 mmHg 48%
    11:00 +15°C° 0 mm 5 mps 592 mmHg 39%
    12:00 +16°C° 0 mm 6 mps 591 mmHg 36%
    13:00 +17°C° 0 mm 8 mps 591 mmHg 34%
    14:00 +18°C° 0 mm 9 mps 590 mmHg 32%
    15:00 +18°C° 0 mm 8 mps 590 mmHg 34%
    16:00 +17°C° 0 mm 7 mps 589 mmHg 37%
    17:00 +16°C° 0 mm 7 mps 589 mmHg 39%
    18:00 +15°C° 0 mm 5 mps 588 mmHg 44%
    19:00 +13°C° 0 mm 4 mps 588 mmHg 48%
    20:00 +13°C° 0 mm 2 mps 588 mmHg 53%
    21:00 +12°C° 0 mm 2 mps 588 mmHg 55%
    22:00 +12°C° 0 mm 2 mps 588 mmHg 56%
    23:00 +10°C° 0 mm 2 mps 588 mmHg 57%

    Day after tomorrow, 21 September, Friday

    Time Temperature Precipitation Wind Pressure Humidity
    00:00 +10°C° 0 mm 2 mps 587 mmHg 57%
    01:00 +10°C° 0 mm 2 mps 587 mmHg 57%
    02:00 +9°C° 0 mm 2 mps 586 mmHg 56%
    03:00 +9°C° 0 mm 2 mps 586 mmHg 59%
    04:00 +9°C° 0 mm 2 mps 586 mmHg 61%
    05:00 +9°C° 0 mm 2 mps 586 mmHg 63%
    06:00 +12°C° 0 mm 2 mps 587 mmHg 56%
    07:00 +13°C° 0 mm 3 mps 588 mmHg 49%
    08:00 +16°C° 0 mm 3 mps 589 mmHg 42%
    09:00 +18°C° 0 mm 4 mps 590 mmHg 36%
    10:00 +20°C° 0 mm 5 mps 591 mmHg 30%
    11:00 +22°C° 0 mm 6 mps 591 mmHg 23%
    12:00 +23°C° 0 mm 6 mps 591 mmHg 23%
    13:00 +23°C° 0 mm 7 mps 590 mmHg 22%
    14:00 +24°C° 0 mm 7 mps 590 mmHg 22%
    15:00 +23°C° 0 mm 6 mps 590 mmHg 25%
    16:00 +22°C° 0 mm 6 mps 589 mmHg 28%
    17:00 +21°C° 0 mm 5 mps 589 mmHg 30%
    18:00 +19°C° 0.2 mm 4 mps 589 mmHg 36%
    19:00 +17°C° 0.2 mm 2 mps 588 mmHg 42%
    20:00 +16°C° 0.2 mm 1 mps 588 mmHg 48%
    21:00 +15°C° 0.3 mm 1 mps 588 mmHg 50%
    22:00 +15°C° 0.3 mm 1 mps 589 mmHg 51%
    23:00 +15°C° 0.3 mm 1 mps 589 mmHg 53%

    22 September, Saturday

    Time Temperature Precipitation Wind Pressure Humidity
    00:00 +14°C° 0.9 mm 1 mps 588 mmHg 58%
    01:00 +14°C° 0.9 mm 1 mps 588 mmHg 63%
    02:00 +13°C° 0.9 mm 1 mps 588 mmHg 67%
    03:00 +13°C° 0.1 mm 1 mps 588 mmHg 67%
    04:00 +13°C° 0.1 mm 2 mps 587 mmHg 67%
    05:00 +13°C° 0.1 mm 2 mps 587 mmHg 67%
    06:00 +14°C° 0.1 mm 2 mps 588 mmHg 63%
    07:00 +15°C° 0.1 mm 2 mps 589 mmHg 58%
    08:00 +16°C° 0.1 mm 2 mps 590 mmHg 53%
    09:00 +16°C° 0.8 mm 2 mps 590 mmHg 55%
    10:00 +16°C° 0.8 mm 2 mps 590 mmHg 57%
    11:00 +16°C° 0.8 mm 2 mps 590 mmHg 59%
    12:00 +17°C° 0.4 mm 2 mps 590 mmHg 53%
    13:00 +19°C° 0.4 mm 3 mps 590 mmHg 46%
    14:00 +20°C° 0.4 mm 3 mps 590 mmHg 40%
    15:00 +20°C° 0.1 mm 3 mps 590 mmHg 39%
    16:00 +20°C° 0.1 mm 3 mps 589 mmHg 39%
    17:00 +20°C° 0.1 mm 3 mps 589 mmHg 39%
    18:00 +18°C° 0.7 mm 3 mps 589 mmHg 48%
    19:00 +16°C° 0.7 mm 2 mps 588 mmHg 57%
    20:00 +15°C° 0.7 mm 2 mps 587 mmHg 67%
    21:00 +14°C° 0.2 mm 2 mps 588 mmHg 71%
    22:00 +14°C° 0.2 mm 2 mps 588 mmHg 76%
    23:00 +14°C° 0.2 mm 2 mps 588 mmHg 81%

    23 September, Sunday

    Time Temperature Precipitation Wind Pressure Humidity
    00:00 +13°C° 0.1 mm 2 mps 588 mmHg 83%
    01:00 +13°C° 0.1 mm 2 mps 588 mmHg 85%
    02:00 +13°C° 0.1 mm 1 mps 588 mmHg 88%
    03:00 +12°C° 0.1 mm 1 mps 587 mmHg 88%
    04:00 +12°C° 0.1 mm 1 mps 587 mmHg 89%
    05:00 +12°C° 0.1 mm 1 mps 587 mmHg 90%
    06:00 +13°C° 0 mm 1 mps 588 mmHg 80%
    07:00 +14°C° 0 mm 1 mps 589 mmHg 70%
    08:00 +15°C° 0 mm 2 mps 590 mmHg 60%
    09:00 +17°C° 0 mm 2 mps 590 mmHg 53%
    10:00 +18°C° 0 mm 3 mps 591 mmHg 46%
    11:00 +20°C° 0 mm 3 mps 591 mmHg 39%
    12:00 +20°C° 0 mm 3 mps 591 mmHg 38%
    13:00 +20°C° 0 mm 2 mps 590 mmHg 38%
    14:00 +20°C° 0 mm 2 mps 590 mmHg 38%
    15:00 +20°C° 0.2 mm 2 mps 589 mmHg 40%
    16:00 +19°C° 0.2 mm 2 mps 589 mmHg 42%
    17:00 +19°C° 0.2 mm 2 mps 589 mmHg 44%
    18:00 +18°C° 0.4 mm 2 mps 589 mmHg 50%
    19:00 +17°C° 0.4 mm 2 mps 588 mmHg 55%
    20:00 +16°C° 0.4 mm 2 mps 588 mmHg 61%
    21:00 +15°C° 0.1 mm 2 mps 588 mmHg 63%
    22:00 +15°C° 0.1 mm 2 mps 588 mmHg 66%
    23:00 +15°C° 0.1 mm 2 mps 588 mmHg 68%

    24 September, Monday

    Time Temperature Precipitation Wind Pressure Humidity
    00:00 +14°C° 0.2 mm 2 mps 587 mmHg 70%
    01:00 +14°C° 0.2 mm 2 mps 587 mmHg 72%
    02:00 +13°C° 0.2 mm 2 mps 586 mmHg 74%
    03:00 +13°C° 0 mm 2 mps 586 mmHg 74%
    04:00 +13°C° 0 mm 2 mps 586 mmHg 74%
    05:00 +13°C° 0 mm 2 mps 586 mmHg 73%
    06:00 +14°C° 0 mm 2 mps 587 mmHg 63%
    07:00 +16°C° 0 mm 2 mps 588 mmHg 53%
    08:00 +17°C° 0 mm 2 mps 589 mmHg 43%
    09:00 +19°C° 0 mm 3 mps 589 mmHg 37%
    10:00 +21°C° 0 mm 4 mps 590 mmHg 32%
    11:00 +22°C° 0 mm 4 mps 590 mmHg 26%
    12:00 +22°C° 0 mm 4 mps 590 mmHg 27%
    13:00 +22°C° 0 mm 4 mps 589 mmHg 27%
    14:00 +22°C° 0 mm 4 mps 589 mmHg 27%
    15:00 +21°C° 0.1 mm 3 mps 588 mmHg 31%
    16:00 +20°C° 0.1 mm 2 mps 588 mmHg 34%
    17:00 +19°C° 0.1 mm 2 mps 587 mmHg 38%
    18:00 +19°C° 0 mm 1 mps 587 mmHg 41%
    19:00 +18°C° 0 mm 1 mps 587 mmHg 43%
    20:00 +16°C° 0 mm 1 mps 587 mmHg 46%
    21:00 +16°C° 0 mm 1 mps 586 mmHg 47%
    22:00 +15°C° 0 mm 1 mps 586 mmHg 47%
    23:00 +15°C° 0 mm 1 mps 586 mmHg 48%
    Show more